Weather History for Cairns, QU

Change the Weather History Date:

Saturday, September 28, 2013

  Actual Average Record
Temperature  
Mean Temperature 74 °F -  
Max Temperature 84 °F 85 °F 86 °F (1998)
Min Temperature 63 °F 69 °F 63 °F (2013)
Cooling Degree Days 8    
Growing Degree Days 24 (Base 50)    
Moisture  
Dew Point 66 °F    
Average Humidity 77    
Maximum Humidity 100    
Minimum Humidity 48    
Precipitation  
Precipitation 0.00 in 0.06 in - ()
Sea Level Pressure  
Sea Level Pressure 29.95 in    
Wind  
Wind Speed 3 mph ()    
Max Wind Speed 13 mph    
Max Gust Speed -    
Visibility 6.6 miles    
Events      
Averages and records for this station are not official NWS values.
T = Trace of Precipitation, MM = Missing Value Source: Averaged Metar Reports

Daily Weather History Graph

Daily Weather History Graph

Search for Another Location

Airport:

Trip Planner

Search our weather history database for the weather conditions in past years. The results will help you decide how hot, cold, wet, or windy it might be!

Date:

Astronomy

Sep. 28, 2013 Rise Set
Actual Time 6:02 AM AEST 6:13 PM AEST
Civil Twilight 5:40 AM AEST 6:35 PM AEST
Nautical Twilight 5:15 AM AEST 7:00 PM AEST
Astronomical Twilight 4:50 AM AEST 7:25 PM AEST
Moon 12:55 AM AEST (9/28) 12:30 PM AEST (9/28)
Length of Visible Light 12h 54m
Length of Day
12h 11m
Last Quarter, 41% of the Moon is Illuminated
Sep 28
Last Quarter
Oct 5
New
Oct 12
First Quarter
Oct 19
Full
Oct 27
Last Quarter

Hourly Weather History & Observations

Time (AEST) Temp. Heat Index Dew Point Humidity Pressure Visibility Wind Dir Wind Speed Gust Speed Precip Events Conditions
12:00 AM 68 °F - 65 °F 89% 29.98 in - Calm Calm - -  
12:00 AM 68.0 °F - 66.2 °F 94% 29.98 in 6.2 mi Calm Calm - N/A   Partly Cloudy
12:30 AM 66.2 °F - 64.4 °F 94% 29.98 in 6.2 mi Calm Calm - N/A   Unknown
1:00 AM 67 °F - 65 °F 92% 29.98 in - WNW 3.5 mph - -  
1:00 AM 66.2 °F - 64.4 °F 94% 29.95 in 6.2 mi WNW 3.5 mph - N/A   Partly Cloudy
1:30 AM 66.2 °F - 64.4 °F 94% 29.95 in 6.2 mi SSW 1.2 mph - N/A   Partly Cloudy
2:00 AM 66.2 °F - 64.4 °F 94% 29.95 in 6.2 mi Calm Calm - N/A   Partly Cloudy
2:30 AM 66.2 °F - 64.4 °F 94% 29.95 in 6.2 mi WSW 3.5 mph - N/A   Partly Cloudy
3:00 AM 65 °F - 64 °F 95% 29.95 in - West 1.2 mph - -  
3:00 AM 64.4 °F - 64.4 °F 100% 29.95 in 6.2 mi WSW 1.2 mph - N/A   Partly Cloudy
3:30 AM 64.4 °F - 64.4 °F 100% 29.95 in 6.2 mi Calm Calm - N/A   Partly Cloudy
4:00 AM 65 °F - 65 °F 98% 29.96 in - Calm Calm - -  
4:00 AM 66.2 °F - 64.4 °F 94% 29.95 in 6.2 mi Calm Calm - N/A   Partly Cloudy
4:30 AM 64.4 °F - 64.4 °F 100% 29.95 in 6.2 mi Calm Calm - N/A   Partly Cloudy
5:00 AM 64.4 °F - 64.4 °F 100% 29.95 in 6.2 mi Calm Calm - N/A   Partly Cloudy
5:30 AM 64.4 °F - 64.4 °F 100% 29.95 in 6.2 mi Calm Calm - N/A   Partly Cloudy
6:00 AM 65 °F - 64 °F 97% 29.96 in 5 mi Calm Calm - -  
6:00 AM 64.4 °F - 64.4 °F 100% 29.95 in 6.2 mi Calm Calm - N/A   Partly Cloudy
6:30 AM 64.4 °F - 64.4 °F 100% 29.95 in 6.2 mi WNW 3.5 mph - N/A   Partly Cloudy
7:00 AM 68 °F - 66 °F 90% 29.98 in - WNW 3.5 mph - -  
7:00 AM 68.0 °F - 66.2 °F 94% 29.98 in 6.2 mi WNW 3.5 mph - N/A   Partly Cloudy
7:30 AM 69.8 °F - 66.2 °F 88% 29.98 in 6.2 mi Calm Calm - N/A   Partly Cloudy
8:00 AM 73.4 °F - 66.2 °F 78% 29.98 in 6.2 mi Calm Calm - N/A   Partly Cloudy
8:30 AM 78.8 °F - 66.2 °F 65% 29.98 in 6.2 mi SE 6.9 mph - N/A   Partly Cloudy
9:00 AM 80 °F - 66 °F 53% 29.99 in 19 mi ESE 4.6 mph - -   Partly Cloudy
9:00 AM 80.6 °F 82.7 °F 66.2 °F 61% 29.98 in 6.2 mi ESE 4.6 mph - N/A   Partly Cloudy
9:30 AM 80.6 °F 82.7 °F 66.2 °F 61% 29.98 in 6.2 mi NNE 3.5 mph - N/A   Scattered Clouds
10:00 AM 82 °F - 65 °F 48% 30.00 in - NE 8.1 mph - -  
10:00 AM 82.4 °F 84.6 °F 66.2 °F 58% 29.98 in 6.2 mi NE 8.1 mph - N/A   Partly Cloudy
10:30 AM 80.6 °F 82.3 °F 64.4 °F 58% 29.98 in 6.2 mi NE 8.1 mph - N/A   Partly Cloudy
11:00 AM 82.4 °F 83.9 °F 64.4 °F 54% 29.98 in 6.2 mi ENE 9.2 mph - N/A   Partly Cloudy
11:30 AM 82.4 °F 83.9 °F 64.4 °F 54% 29.98 in 6.2 mi NNE 9.2 mph - N/A   Partly Cloudy
12:00 PM 84 °F - 67 °F 48% 29.96 in - NNE 9.2 mph - -  
12:00 PM 84.2 °F 87.3 °F 68.0 °F 58% 29.95 in 6.2 mi NNE 9.2 mph - N/A   Partly Cloudy
12:30 PM 84.2 °F 86.6 °F 66.2 °F 55% 29.95 in 6.2 mi ENE 9.2 mph - N/A   Partly Cloudy
1:00 PM 83 °F - 67 °F 49% 29.94 in - NE 10.4 mph - -  
1:00 PM 82.4 °F 84.6 °F 66.2 °F 58% 29.92 in 6.2 mi NE 10.4 mph - N/A   Partly Cloudy
1:30 PM 82.4 °F 83.9 °F 64.4 °F 54% 29.92 in 6.2 mi NE 10.4 mph - N/A   Partly Cloudy
2:00 PM 82.4 °F 85.4 °F 68.0 °F 62% 29.92 in 6.2 mi NE 10.4 mph - N/A   Partly Cloudy
2:30 PM 84.2 °F 86.6 °F 66.2 °F 55% 29.89 in 6.2 mi NE 10.4 mph - N/A   Partly Cloudy
3:00 PM 83 °F - 68 °F 51% 29.90 in 16 mi NE 11.5 mph - -   Smoke
3:00 PM 84.2 °F 87.3 °F 68.0 °F 58% 29.89 in 6.2 mi NE 11.5 mph - N/A   Partly Cloudy
3:30 PM 82.4 °F 84.6 °F 66.2 °F 58% 29.89 in 6.2 mi NE 12.7 mph - N/A   Partly Cloudy
4:00 PM 82 °F - 69 °F 55% 29.89 in - NE 11.5 mph - -  
4:00 PM 82.4 °F 85.4 °F 68.0 °F 62% 29.89 in 6.2 mi NE 11.5 mph - N/A   Partly Cloudy
4:30 PM 82.4 °F 85.4 °F 68.0 °F 62% 29.89 in 6.2 mi NE 11.5 mph - N/A   Partly Cloudy
5:00 PM 80.6 °F 83.2 °F 68.0 °F 65% 29.89 in 6.2 mi NE 10.4 mph - N/A   Partly Cloudy
5:30 PM 78.8 °F - 68.0 °F 69% 29.89 in 6.2 mi NE 9.2 mph - N/A   Partly Cloudy
6:00 PM 78 °F - 68 °F 64% 29.92 in - NE 8.1 mph - -  
6:00 PM 77.0 °F - 68.0 °F 74% 29.92 in 6.2 mi NE 8.1 mph - N/A   Partly Cloudy
6:30 PM 77.0 °F - 68.0 °F 74% 29.92 in 6.2 mi ENE 8.1 mph - N/A   Partly Cloudy
7:00 PM 76 °F - 68 °F 70% 29.94 in - NE 8.1 mph - -  
7:00 PM 77.0 °F - 68.0 °F 74% 29.92 in 6.2 mi NE 8.1 mph - N/A   Partly Cloudy
7:30 PM 75.2 °F - 68.0 °F 78% 29.92 in - North 4.6 mph - N/A   Clear
8:00 PM 75.2 °F - 68.0 °F 78% 29.95 in 6.2 mi WNW 5.8 mph - N/A   Partly Cloudy
8:30 PM 73.4 °F - 68.0 °F 83% 29.95 in 6.2 mi Calm Calm - N/A   Partly Cloudy
9:00 PM 72 °F - 68 °F 82% 29.96 in - Calm Calm - -  
9:00 PM 71.6 °F - 68.0 °F 88% 29.95 in 6.2 mi Calm Calm - N/A   Partly Cloudy
9:30 PM 71.6 °F - 68.0 °F 88% 29.95 in 6.2 mi Calm Calm - N/A   Partly Cloudy
10:00 PM 70 °F - 68 °F 91% 29.97 in - West 2.3 mph - -  
10:00 PM 69.8 °F - 68.0 °F 94% 29.95 in 6.2 mi West 2.3 mph - N/A   Partly Cloudy
10:30 PM 69.8 °F - 66.2 °F 88% 29.95 in 6.2 mi Calm Calm - N/A   Partly Cloudy
11:00 PM 69.8 °F - 68.0 °F 94% 29.98 in 6.2 mi West 1.2 mph - N/A   Scattered Clouds
11:30 PM 69.8 °F - 68.0 °F 94% 29.95 in 6.2 mi Calm Calm - N/A   Scattered Clouds